Temperature
21 21 21 21 20 20 20 19 19 19 19 19 19 19 19 19 19 19 19 18 18 18 18 18 18 18 18 18 18 18 18 18 18 18 18 18 18 17 17 17 17 17 17
21 22 21 21 20 20 20 19 19 19 19 19 19 19 19 19 19 19 18 18 18 18 18 18 18 18 18 18 18 18 18 18 18 18 18 18 17 17 17 17 17 17 17
22 22 21 21 20 20 20 19 19 19 19 19 19 19 19 19 18 18 18 18 18 18 18 18 18 18 18 18 18 18 18 18 18 17 17 17 17 17 17 17 17 17 17
22 22 21 21 20 20 20 19 19 19 19 19 19 19 19 18 18 18 18 18 18 18 18 18 18 18 18 18 18 18 18 17 17 17 17 17 17 17 17 17 17 17 17
21 21 21 21 20 20 20 19 19 19 19 19 19 19 18 18 18 18 18 18 18 18 18 18 18 18 18 18 18 18 18 17 17 17 17 17 17 17 17 17 17 17 17
20 21 21 21 20 20 20 19 19 19 19 19 19 18 18 18 18 18 18 18 18 18 18 18 18 18 18 18 18 18 18 17 17 17 17 17 17 17 17 17 17 17 17
20 20 21 21 20 20 20 19 19 19 19 19 18 18 18 18 18 18 18 18 18 18 18 18 18 18 18 18 18 18 18 18 17 17 17 18 17 17 17 17 17 17 17
21 20 21 20 20 20 20 19 19 19 19 19 18 18 18 18 18 18 18 18 18 18 18 18 18 18 18 18 18 18 18 18 17 17 18 18 17 17 17 17 17 17 17
21 20 21 20 20 20 19 19 19 19 19 18 18 18 18 18 18 18 18 18 18 18 18 18 18 18 18 18 18 18 18 18 18 17 18 18 18 17 17 17 17 17 17
21 20 20 20 20 20 19 19 19 19 19 18 18 18 18 18 18 18 18 18 18 18 18 18 18 18 18 18 18 18 18 18 18 17 18 18 18 17 17 17 17 17 17
21 20 19 19 19 19 19 19 19 19 19 18 18 18 18 18 18 18 18 18 18 18 18 18 18 18 18 18 18 18 18 18 18 18 18 18 18 17 17 17 17 17 17
21 20 20 19 19 19 18 19 19 18 19 18 18 18 18 17 17 17 18 18 18 18 18 18 18 18 18 18 18 18 18 18 18 18 18 18 18 18 17 17 17 17 17
21 20 20 19 19 19 18 19 18 18 18 18 18 18 18 17 17 18 18 18 18 18 18 18 18 17 18 18 18 18 18 18 18 18 18 18 18 18 17 17 17 17 17
21 21 20 19 19 19 19 19 18 18 18 18 18 18 18 18 18 18 18 18 18 18 18 18 17 18 18 18 18 18 18 18 18 18 18 18 18 18 18 17 17 17 17
21 21 20 20 19 19 19 19 18 18 18 18 18 18 18 18 18 18 18 18 18 18 18 18 18 18 18 18 18 18 18 18 18 18 18 18 18 18 17 17 17 17 17
21 20 20 19 19 19 19 19 19 18 18 18 18 18 18 18 18 18 18 18 18 17 17 17 18 18 18 18 18 18 18 18 17 18 18 18 18 17 17 17 17 17 17
21 20 20 19 19 19 19 19 19 18 18 18 18 18 18 18 18 18 18 18 17 18 18 17 17 17 18 18 18 18 18 18 18 17 17 17 17 17 17 17 17 17 17
21 20 20 19 19 19 19 18 18 18 18 18 18 18 18 18 18 18 17 17 17 18 18 17 17 18 18 18 17 17 18 18 18 17 17 17 17 17 17 17 17 17 17
20 20 19 19 19 18 18 18 18 18 18 18 18 18 18 18 18 18 17 17 17 17 17 17 17 17 17 18 18 18 18 18 18 18 17 17 17 17 17 17 17 17 17
20 19 19 19 18 18 18 18 18 18 18 18 18 18 18 18 18 17 17 17 17 17 17 17 17 17 17 17 18 18 18 18 18 17 17 17 17 17 17 17 17 16 16
20 19 19 18 18 18 18 18 18 18 18 18 18 18 18 18 18 17 17 17 17 17 17 17 17 17 17 17 17 18 18 18 18 18 18 17 17 17 17 16 16 16 16
19 19 18 18 18 18 18 18 18 18 18 18 18 17 17 17 18 18 17 17 17 17 17 17 17 17 17 17 17 17 18 17 18 18 18 17 17 17 17 17 16 16 16
19 19 18 18 18 18 18 18 18 17 17 17 17 17 17 17 18 17 17 17 17 17 17 17 17 17 17 17 17 17 18 18 18 18 18 18 17 17 17 17 17 16 16
19 18 18 18 18 18 17 17 17 17 17 17 17 17 17 17 17 17 17 17 17 17 17 17 17 17 17 17 17 17 18 18 18 17 18 18 17 17 17 17 17 16 16
19 18 18 18 18 18 17 17 17 17 17 17 17 17 17 17 17 17 17 17 17 17 17 16 16 16 17 17 17 17 18 18 18 18 18 17 17 17 17 17 17 16 16
19 18 18 18 17 17 17 17 17 17 17 17 17 17 17 17 17 17 17 17 17 17 16 16 16 16 16 17 17 17 17 17 18 18 18 18 18 17 17 17 17 16 16
Wind_Speed
20 20 21 20 19 18 17 17 16 16 16 16 16 16 16 16 16 16 16 16 16 16 16 16 15 16 16 17 17 18 18 19 19 20 20 19 17 15 15 17 19 18 18
23 22 22 21 20 18 18 17 16 16 16 16 15 15 15 15 15 15 15 16 16 16 16 16 16 16 16 16 16 16 17 17 18 19 20 19 17 16 16 17 19 16 17
24 23 22 21 20 19 18 17 17 16 16 15 15 15 15 15 15 15 15 15 15 16 16 16 16 16 16 15 14 14 14 14 15 16 18 17 17 17 20 21 19 17 17
24 22 21 22 20 19 18 18 17 16 16 15 14 14 15 14 15 15 15 15 15 16 16 16 15 15 15 14 12 11 11 10 10 10 12 16 16 17 18 18 18 17 16
22 21 23 23 21 20 18 18 17 16 16 15 14 14 14 14 14 15 15 15 15 15 15 15 15 14 14 12 10 8 7 6 6 9 17 18 16 16 17 17 16 16 16
22 22 24 23 21 20 18 18 17 16 16 15 14 14 14 14 14 15 15 15 15 15 15 15 14 14 12 11 8 5 3 2 2 13 17 17 15 15 15 16 15 15 15
22 22 23 22 21 20 19 18 17 16 15 15 14 14 14 14 15 15 15 15 15 15 14 14 13 13 11 9 6 3 2 3 6 16 17 16 15 15 15 15 15 14 14
22 22 22 22 21 20 19 18 17 16 16 15 15 15 14 14 15 15 15 14 14 14 13 13 13 11 10 7 4 1 3 4 11 16 17 16 15 15 14 14 14 14 14
22 21 19 20 19 19 19 18 17 16 15 15 15 15 15 15 15 15 15 14 14 13 13 12 11 10 8 6 3 1 4 6 7 14 16 15 15 14 13 13 13 13 13
20 20 18 18 18 17 17 17 17 16 16 15 15 15 15 15 15 15 15 13 13 12 11 11 10 9 8 5 3 2 4 5 9 15 14 15 15 14 13 13 12 12 12
18 17 18 17 16 17 17 17 17 16 15 15 14 15 15 14 14 13 15 13 12 11 10 9 8 8 7 6 5 4 4 1 11 14 14 16 15 13 12 12 11 11 10
18 18 16 17 16 15 15 16 14 14 14 13 14 14 12 11 13 14 15 13 11 10 9 8 7 7 7 6 5 6 4 3 10 13 14 17 15 13 12 11 10 10 10
16 16 16 15 12 13 11 12 10 11 12 12 13 13 10 10 13 13 11 10 10 9 8 8 7 6 4 3 2 4 3 6 10 14 14 15 14 12 11 10 10 9 9
16 15 16 15 11 10 11 9 9 9 8 8 11 12 9 5 6 8 7 9 9 7 5 5 4 3 3 3 3 1 4 7 12 13 14 15 13 12 11 10 9 9 8
14 14 14 13 11 9 9 8 9 8 9 9 11 10 10 6 5 6 5 5 7 7 5 2 3 3 2 1 2 3 3 7 11 12 13 13 13 11 10 10 9 8 7
15 15 14 14 11 9 8 6 6 7 8 10 10 11 11 8 6 5 4 3 4 6 5 4 4 3 1 1 2 2 3 5 9 12 13 12 12 11 10 10 9 8 8
15 14 13 13 12 10 10 8 7 7 9 7 9 11 10 9 9 6 4 3 4 6 5 4 3 3 2 2 2 2 2 3 6 10 12 12 12 11 10 10 9 8 8
14 13 14 15 14 12 10 8 6 7 8 7 10 10 9 10 10 6 4 3 5 6 4 2 2 2 1 1 2 1 2 2 4 6 9 11 12 11 11 11 10 10 9
13 14 14 13 15 13 11 8 6 5 6 7 10 10 9 10 10 6 4 4 5 4 3 3 3 1 2 1 2 2 2 3 3 4 5 9 11 13 12 13 12 11 10
12 13 14 13 13 13 10 8 6 6 6 6 7 9 11 11 10 6 5 6 4 2 2 2 3 1 1 2 2 3 1 3 3 3 4 6 10 12 13 13 12 11 11
13 13 14 14 13 11 10 10 9 8 7 6 6 10 11 11 10 6 5 5 3 3 3 4 3 3 2 2 1 2 2 2 3 3 3 3 5 9 11 13 12 11 11
13 14 14 15 15 13 10 9 8 8 7 7 6 9 11 11 10 8 5 6 4 4 4 3 2 2 3 3 2 2 2 2 2 4 4 4 4 6 7 11 11 10 10
13 14 14 14 14 14 12 9 8 7 6 6 7 8 8 10 10 7 7 5 5 5 5 4 4 4 2 2 2 1 1 2 3 2 4 3 3 3 3 5 9 10 9
13 13 12 13 13 13 13 12 13 11 9 9 8 8 8 9 9 9 7 6 5 4 5 6 6 4 3 3 2 1 1 1 0 2 2 3 5 4 2 3 4 9 9
12 12 12 12 13 13 13 12 12 10 9 8 9 10 9 8 8 9 8 6 5 4 5 4 4 4 3 3 2 2 2 2 3 2 3 4 4 4 4 3 3 5 9
11 12 12 12 13 14 14 13 12 11 10 10 10 10 9 7 7 8 8 6 6 5 5 4 4 4 3 2 1 2 2 2 3 3 2 5 5 4 5 4 3 4 7
Wind_Direction
131 132 135 132 130 128 126 123 121 118 114 109 105 101 99 96 95 94 95 96 96 96 94 92 92 90 89 90 90 92 93 93 94 95 94 92 89 89 96 102 97 94 95
131 133 135 133 132 131 128 125 123 121 118 114 110 107 104 101 99 99 99 99 98 98 95 94 94 93 93 95 96 98 101 103 105 105 100 92 86 87 90 92 93 99 98
129 134 136 134 134 132 130 128 127 124 121 118 115 112 109 107 104 103 102 101 100 99 98 97 96 96 97 98 101 105 109 114 119 122 113 100 90 87 90 93 97 99 98
131 138 138 137 135 134 133 132 130 127 123 120 117 115 112 111 108 105 104 103 101 101 100 99 98 98 99 101 105 110 115 123 133 135 110 101 95 93 94 97 99 99 99
135 137 137 140 137 136 135 133 131 129 126 123 120 118 115 114 111 109 106 104 103 102 101 100 100 100 101 103 106 108 113 118 127 109 96 94 95 99 99 100 101 101 101
137 136 140 141 139 138 137 135 133 132 130 127 124 120 118 116 114 111 107 106 105 103 101 101 102 102 103 105 105 102 92 75 85 102 103 102 103 105 104 104 104 104 103
136 134 141 142 140 140 140 138 137 136 134 131 128 124 122 119 116 113 110 108 106 104 103 103 104 104 105 107 107 96 37 1 103 103 98 99 105 106 106 105 105 105 105
134 135 140 143 142 142 142 141 140 139 137 134 131 128 125 122 119 116 113 111 108 107 106 105 106 109 109 110 106 54 340 340 108 107 104 106 111 109 108 109 108 107 106
135 136 143 145 145 145 145 144 142 141 139 138 135 132 130 126 123 119 117 115 114 112 111 111 111 113 117 122 127 337 332 344 95 113 111 114 117 115 112 112 112 111 110
136 141 148 149 148 149 148 147 146 145 144 142 139 139 136 133 130 128 124 120 118 117 117 118 120 123 129 140 167 252 311 327 106 104 111 120 122 120 117 115 115 114 112
141 145 149 149 153 154 152 150 151 149 149 147 146 147 146 147 142 141 124 126 124 125 126 129 134 140 146 166 198 243 285 84 101 106 114 126 127 125 123 121 120 119 117
148 152 153 153 159 159 154 150 159 158 158 162 155 161 171 154 143 130 131 134 136 137 140 146 154 168 183 176 195 225 242 124 111 112 123 132 131 131 129 128 127 125 124
154 158 155 156 164 160 145 156 164 157 161 170 163 170 166 144 136 131 142 145 152 160 163 157 179 197 186 149 175 204 162 117 111 113 130 135 135 136 136 135 135 134 134
162 163 156 158 163 153 149 160 161 156 167 167 166 170 157 151 140 143 149 158 164 165 165 169 165 132 130 149 132 85 98 104 111 119 140 142 141 143 144 144 145 146 145
165 163 156 157 158 151 144 164 167 158 165 159 164 172 159 154 146 140 140 159 160 152 156 150 107 93 72 73 105 94 79 99 118 125 139 149 149 152 154 155 156 157 158
170 167 159 159 155 148 150 169 154 156 154 156 164 168 167 152 140 136 143 162 144 141 135 137 127 137 163 90 79 85 67 98 119 131 143 153 158 161 164 166 168 170 173
172 166 159 159 156 158 160 172 163 156 156 156 156 161 165 149 142 146 149 163 135 126 124 135 134 154 164 151 136 126 117 119 125 135 147 156 161 167 171 173 175 178 182
170 163 163 168 163 166 165 176 167 161 155 151 149 157 165 149 153 155 154 153 140 140 148 136 169 167 119 135 155 183 126 122 140 149 156 160 161 167 176 183 185 188 190
167 164 165 166 166 169 168 176 174 158 151 152 153 157 166 161 164 167 144 131 155 151 155 175 151 138 147 180 191 177 183 160 148 174 161 160 159 160 169 184 190 192 196
168 166 168 168 166 167 168 172 166 165 162 158 156 156 166 168 170 169 139 142 167 152 134 107 124 129 162 218 236 161 174 152 171 165 181 170 164 170 172 172 183 194 201
169 169 171 172 169 168 169 174 171 174 171 166 161 158 169 170 166 173 149 153 169 152 152 154 149 168 209 196 219 156 190 190 173 155 192 179 170 172 166 170 181 184 188
174 174 175 175 173 174 174 173 171 168 173 172 164 159 172 170 166 178 154 167 165 155 168 171 157 186 213 184 198 183 180 199 221 195 178 183 179 170 174 178 177 176 181
180 180 185 179 176 176 170 169 168 160 174 170 162 166 176 171 173 178 165 172 168 175 170 179 179 207 220 207 208 218 221 187 178 180 206 176 150 162 191 173 178 174 180
184 183 179 177 176 174 172 176 174 173 178 175 170 169 175 175 176 177 175 169 173 173 162 195 189 205 207 224 215 205 202 61 201 152 215 171 166 183 218 203 188 174 184
183 181 179 178 180 177 179 180 179 180 181 174 171 168 173 178 182 181 175 166 172 178 170 192 170 207 210 226 229 208 215 216 243 212 194 177 189 186 193 204 200 186 187
179 178 177 178 181 179 180 182 183 182 181 176 173 168 173 176 184 181 174 168 180 181 169 178 172 203 230 248 283 264 209 211 234 244 205 193 196 194 182 176 185 199 197
Height
1499 1501 1505 1508 1510 1513 1516 1518 1520 1522 1523 1525 1527 1528 1530 1531 1532 1534 1535 1537 1538 1539 1540 1541 1542 1544 1545 1546 1547 1548 1550 1551 1552 1553 1554 1555 1556 1557 1559 1560 1561 1561 1563
1497 1501 1505 1508 1511 1514 1517 1519 1522 1523 1525 1527 1529 1530 1532 1533 1535 1536 1538 1539 1540 1541 1542 1543 1544 1546 1547 1548 1549 1550 1552 1553 1554 1555 1557 1558 1559 1560 1561 1562 1563 1564 1565
1497 1501 1506 1509 1512 1515 1518 1521 1523 1525 1527 1529 1531 1532 1534 1535 1537 1538 1540 1541 1542 1543 1544 1546 1547 1548 1549 1550 1552 1553 1554 1556 1557 1558 1559 1560 1561 1563 1564 1565 1566 1567 1568
1497 1502 1506 1510 1513 1517 1519 1522 1525 1527 1529 1531 1533 1534 1536 1537 1539 1540 1542 1543 1544 1545 1546 1548 1549 1550 1551 1552 1554 1556 1557 1558 1559 1561 1563 1563 1564 1565 1566 1567 1568 1569 1570
1499 1503 1507 1511 1514 1518 1521 1523 1526 1528 1530 1532 1534 1536 1537 1539 1541 1542 1543 1545 1546 1547 1549 1550 1551 1552 1553 1555 1556 1558 1559 1561 1562 1564 1565 1565 1566 1567 1568 1569 1570 1571 1573
1501 1504 1508 1512 1515 1519 1522 1525 1527 1530 1532 1534 1536 1538 1539 1541 1543 1544 1545 1547 1548 1549 1550 1552 1553 1554 1556 1557 1559 1560 1562 1563 1565 1566 1567 1567 1568 1569 1570 1571 1572 1574 1575
1502 1504 1508 1513 1516 1520 1523 1526 1528 1531 1533 1535 1537 1539 1541 1543 1544 1546 1547 1548 1550 1551 1553 1554 1555 1556 1558 1559 1561 1563 1564 1565 1567 1568 1569 1569 1570 1571 1572 1573 1574 1576 1577
1502 1505 1509 1513 1517 1521 1524 1527 1529 1532 1534 1536 1539 1540 1542 1544 1546 1547 1549 1550 1552 1553 1554 1556 1557 1558 1560 1561 1563 1564 1566 1567 1569 1569 1570 1571 1572 1573 1574 1575 1576 1577 1579
1502 1505 1510 1514 1518 1521 1524 1528 1530 1533 1535 1538 1540 1542 1544 1546 1547 1549 1550 1552 1553 1555 1556 1558 1559 1560 1562 1563 1565 1566 1568 1569 1570 1570 1571 1572 1573 1575 1576 1577 1578 1579 1580
1504 1507 1511 1514 1518 1521 1525 1528 1531 1534 1536 1539 1541 1543 1545 1547 1549 1550 1552 1554 1555 1557 1558 1560 1561 1562 1564 1565 1567 1568 1569 1571 1572 1571 1572 1574 1575 1576 1577 1578 1579 1580 1582
1505 1508 1512 1515 1518 1522 1525 1528 1532 1534 1537 1540 1542 1544 1546 1548 1550 1552 1553 1555 1557 1559 1560 1562 1563 1564 1566 1567 1569 1570 1571 1572 1572 1572 1573 1575 1576 1577 1578 1579 1580 1581 1582
1505 1509 1512 1515 1519 1523 1526 1528 1532 1535 1538 1540 1543 1545 1547 1550 1552 1553 1555 1557 1558 1560 1562 1563 1565 1566 1567 1569 1570 1571 1571 1572 1573 1573 1574 1575 1577 1578 1579 1580 1581 1582 1583
1504 1508 1511 1515 1519 1523 1526 1529 1532 1536 1538 1541 1544 1546 1549 1551 1553 1554 1556 1558 1559 1561 1563 1565 1566 1567 1569 1570 1571 1571 1572 1573 1574 1574 1575 1576 1577 1579 1580 1581 1582 1583 1584
1503 1507 1510 1514 1518 1523 1525 1529 1532 1535 1538 1541 1544 1547 1549 1552 1553 1555 1556 1558 1560 1562 1564 1566 1567 1568 1569 1570 1571 1572 1573 1574 1574 1575 1576 1577 1578 1579 1580 1581 1582 1583 1585
1500 1505 1509 1512 1517 1521 1524 1528 1532 1535 1538 1541 1544 1547 1549 1552 1554 1555 1557 1559 1561 1563 1564 1566 1567 1568 1569 1570 1571 1572 1573 1574 1574 1576 1577 1578 1579 1579 1580 1581 1582 1584 1585
1498 1503 1507 1510 1515 1519 1523 1527 1531 1534 1537 1541 1543 1546 1549 1552 1553 1555 1557 1559 1561 1563 1564 1566 1567 1568 1569 1570 1571 1572 1574 1575 1576 1576 1577 1578 1579 1580 1580 1582 1583 1584 1585
1495 1500 1504 1508 1512 1517 1521 1526 1530 1534 1536 1540 1542 1545 1548 1551 1553 1555 1557 1559 1561 1562 1564 1566 1567 1568 1570 1571 1571 1573 1574 1575 1576 1576 1577 1578 1579 1579 1580 1581 1582 1583 1584
1492 1497 1501 1506 1509 1514 1519 1524 1528 1532 1535 1538 1540 1544 1547 1549 1552 1554 1556 1558 1560 1562 1564 1565 1567 1568 1570 1571 1572 1573 1574 1575 1576 1577 1577 1578 1578 1579 1580 1581 1582 1583 1583
1489 1493 1497 1502 1506 1511 1516 1521 1526 1530 1533 1536 1539 1541 1545 1548 1550 1553 1555 1557 1559 1561 1563 1565 1566 1567 1569 1570 1571 1573 1574 1575 1576 1577 1577 1578 1578 1579 1580 1581 1581 1582 1583
1487 1490 1494 1499 1503 1508 1513 1518 1523 1527 1531 1534 1537 1539 1543 1546 1549 1552 1554 1555 1558 1560 1561 1563 1565 1566 1568 1569 1571 1572 1573 1574 1575 1576 1577 1578 1578 1579 1579 1580 1581 1581 1582
1484 1487 1491 1495 1500 1505 1509 1514 1519 1524 1528 1532 1535 1537 1541 1544 1547 1549 1552 1554 1556 1558 1560 1562 1564 1565 1567 1569 1570 1572 1573 1574 1574 1575 1576 1577 1578 1578 1579 1579 1580 1580 1580
1481 1484 1488 1491 1496 1501 1505 1511 1516 1521 1525 1530 1533 1536 1539 1542 1545 1548 1550 1552 1554 1556 1558 1560 1562 1564 1566 1568 1569 1570 1572 1574 1573 1574 1575 1576 1577 1578 1578 1579 1579 1579 1579
1477 1480 1483 1487 1492 1497 1502 1508 1514 1519 1524 1528 1531 1534 1537 1540 1543 1546 1548 1550 1552 1554 1556 1559 1561 1563 1565 1567 1568 1570 1570 1571 1572 1573 1574 1575 1576 1577 1577 1578 1578 1578 1578
1474 1477 1480 1484 1489 1494 1499 1505 1509 1514 1519 1523 1527 1531 1535 1538 1541 1544 1546 1548 1550 1553 1555 1557 1559 1561 1563 1565 1567 1568 1569 1570 1571 1572 1573 1574 1574 1575 1576 1577 1577 1577 1577
1470 1473 1477 1481 1486 1491 1496 1501 1507 1512 1516 1521 1525 1528 1532 1535 1538 1541 1544 1546 1548 1551 1553 1555 1557 1559 1561 1563 1565 1566 1567 1568 1569 1571 1571 1572 1573 1573 1574 1575 1575 1576 1576
1468 1471 1474 1478 1482 1488 1492 1498 1503 1509 1513 1518 1521 1525 1529 1533 1536 1539 1541 1544 1546 1549 1551 1553 1554 1557 1559 1561 1562 1564 1566 1567 1568 1569 1569 1570 1570 1571 1571 1572 1573 1574 1574